Location: Cudham
(51.3000°N, 0.0667°E)
Time: 07:37:11
(UTC+00:00)

Ariane Rocket - Pass Details

Date: 19 May 2025
Orbit: 754 x 765 km, 98.4° (Epoch: 10 April)

Event Time Altitude Azimuth Distance (km) Brightness Sun altitude
Exits shadow 19:52:10 - 116° (ESE) 3,109 5.5 -1.0°
Reaches altitude 10° 19:54:42 10° 101° (ESE) 2,296 4.9 -1.4°
Drops below altitude 10° 20:01:53 10° 10° (N) 2,311 5.9 -2.3°
Enters shadow 20:58:14 -69° 166° (SSE) 12,676 9.1 -8.8°
Maximum altitude 21:36:37 79° 256° (WSW) 782 3.1 -12.4°
